Погода в Завидово

Россия / Тверская область     56°31′44″N   36°31′40″E
темп.,
°C
ветер,
м/с
пор.,
м/с
влажн.,
%
обл.,
%
осадки,
мм/ч
давл.,
гПа
погр.,
м
21 января, пт
пт2100:00−2ю51292100 0.1 998753
03:00−2ю51289100 0.3 998640
06:00−3ю4991100 0.0 997452
09:00−3юв4993100 0.1 997543
12:00−4юв41092100 0.0 997456
15:00−4юв3895100 0.6 997416
18:00−6вюв3795100 0.4 997327
21:00−6вюв2696100 0.9 997286
22 января, сб
сб2200:00−7в2397100 0.3 999112
03:00−8вюв2498100 0.4 100077
06:00−13в239976 0.0 100241
09:00−10всв279693 0.2 1004185
12:00−7в3693100 0.3 1006340
15:00−6всв369599 0.6 1008393
18:00−7всв269770 0.1 1011157
21:00−9всв269798 0.2 1014140
23 января, вс
вс2300:00−11всв249977 0.1 101651
03:00−16всв1110095 0.1 101911
06:00−14в119871 0.1 102117
09:00−18св1110078 0.1 10259
12:00−11св119484 0.0 102796
15:00−9с119551 0.0 102978
18:00−16св0010072 0.0 10339
21:00−18ссз0010098 0.0 10359
24 января, пн
пн2400:00−19ю1110097 0.0 10369
03:00−20ссз00100100 0.0 10389
06:00−21вюв0010099 0.0 10389
09:00−21ююв0010097 0.0 10389
12:00−11ююз009475 0.0 103884
15:00−8зсз009436 0.0 103646
18:00−16ююв1110078 0.0 10369
21:00−18ю2210089 0.0 103511
25 января, вт
вт2500:00−16ю259853 0.0 103374
03:00−17юз119970 0.0 103127
06:00−15ююз279978 0.0 1028113
09:00−15ююз289857 0.0 1026129
12:00−10ююз4109246 0.0 1023265
15:00−7ююз4128979 0.0 1020441
18:00−10ююз4129094 0.0 1019343
21:00−9ююз41194100 0.1 1018367